User: anonymous
Location: Camp Creek
(33.9000°N, 111.8167°W)
Time: 19:17:32
(UTC-07:00)
Language:

Cosmos 1656 - Orbit

View from above orbital plane
View from above orbital plane
View from above satellite
View from above satellite

Ground track
Ground track

The orbit data is extracted from the following two-line orbital elements,

1 15755U 85042A   14265.14106212 -.00000161  00000-0 -52782-4 0  8590
2 15755 071.1117 307.9636 0034519 166.6169 193.5881 14.20304609518833
Epoch (UTC): 22 September 2014 03:23:07
Eccentricity: 0.0034519
inclination: 71.1117°
perigee height: 799 km
apogee height: 849 km
right ascension of ascending node: 307.9636°
argument of perigee: 166.6169°
revolutions per day: 14.20304609
mean anomaly at epoch: 193.5881°
orbit number at epoch: 51883

The dashed part of the orbit path shows where the satellite is in the earth's shadow,  

DLR